Tucson, AZ

12:28 AM MST on September 19, 2019 (GMT -0700)
Tucson International

Weather History for KTUS - July, 2019

Change the Weather History Date:

Sunday, July 14, 2019

  Actual Average Record
Temperature  
Mean Temperature 91 °F 87 °F  
Max Temperature 106 °F 100 °F 109 °F (1989)
Min Temperature 76 °F 75 °F 65 °F (2002)
Degree Days  
Heating Degree Days 0 0  
Month to date heating degree days 0 0  
Since 1 June heating degree days 0 0  
Since 1 July heating degree days 0 0  
Cooling Degree Days 26 22  
Month to date cooling degree days 349 320  
Year to date cooling degree days 1334 1416  
Since 1 June cooling degree days 962 914  
Growing Degree Days 40 (Base 50)    
Moisture  
Dew Point 58 °F    
Average Humidity 37    
Maximum Humidity 60    
Minimum Humidity 11    
Precipitation  
Precipitation 0.01 in 0.07 in 1.48 in (1999)
Month to date precipitation 0.29 0.74  
Year to date precipitation 5.32 4.01  
Sea Level Pressure  
Sea Level Pressure 29.89 in    
Wind  
Wind Speed 10 mph (SW)    
Max Wind Speed 44 mph    
Max Gust Speed 53 mph    
Visibility 10 miles    
Events Rain , Thunderstorm    
T = Trace of Precipitation, MM = Missing Value Source: NWS Daily Summary

Daily Weather History Graph

Daily Weather History Graph

Search for Another Location

Airport or City:

Astronomy

Jul. 14, 2019 Rise Set
Actual Time 5:27 AM MST 7:31 PM MST
Civil Twilight 4:59 AM MST 7:59 PM MST
Nautical Twilight 4:25 AM MST 8:32 PM MST
Astronomical Twilight 3:49 AM MST 9:09 PM MST
Moon 5:56 PM MST (7/14) 3:30 AM MST (7/14)
Length of Visible Light 14h 59m
Length of Day
14h 04m
Waxing Gibbous, 96% of the Moon is Illuminated
Jul 14
Waxing Gibbous
Jul 16
Full
Jul 24
Last Quarter
Jul 31
New
Aug 7
First Quarter

Hourly Weather History & Observations

Time (MST) Temp. Heat Index Dew Point Humidity Pressure Visibility Wind Dir Wind Speed Gust Speed Precip Events Conditions
12:53 AM 80.1 °F 81.1 °F 61.0 °F 52% 29.87 in 10.0 mi SSE 5.8 mph - N/A   Clear
1:53 AM 79.0 °F - 61.0 °F 54% 29.86 in 10.0 mi SSE 3.5 mph - N/A   Clear
2:53 AM 79.0 °F - 61.0 °F 54% 29.86 in 10.0 mi ESE 4.6 mph - N/A   Clear
3:53 AM 77.0 °F - 61.0 °F 58% 29.85 in 10.0 mi SE 8.1 mph - N/A   Clear
4:53 AM 77.0 °F - 61.0 °F 58% 29.88 in 10.0 mi SE 5.8 mph - N/A   Clear
5:53 AM 75.9 °F - 61.0 °F 60% 29.92 in 10.0 mi SSE 6.9 mph - N/A   Clear
6:53 AM 78.1 °F - 61.0 °F 56% 29.93 in 10.0 mi North - - N/A   Clear
7:53 AM 82.0 °F 82.4 °F 60.1 °F 47% 29.93 in 10.0 mi SSE 6.9 mph - N/A   Clear
8:53 AM 88.0 °F 87.9 °F 61.0 °F 40% 29.92 in 10.0 mi North 3.5 mph - N/A   Clear
9:53 AM 90.0 °F 88.8 °F 57.9 °F 34% 29.91 in 10.0 mi WSW 4.6 mph - N/A   Clear
10:53 AM 95.0 °F 93.4 °F 55.9 °F 27% 29.89 in 10.0 mi North 6.9 mph - N/A   Clear
11:53 AM 98.1 °F 96.4 °F 55.0 °F 24% 29.87 in 10.0 mi NNW 8.1 mph 20.7 mph N/A   Clear
12:53 PM 100.9 °F 99.6 °F 55.0 °F 22% 29.85 in 10.0 mi NNW 6.9 mph - N/A   Clear
1:53 PM 102.0 °F 101.1 °F 55.9 °F 22% 29.82 in 10.0 mi NNW 9.2 mph - N/A   Clear
2:53 PM 102.9 °F 101.4 °F 55.0 °F 20% 29.79 in 10.0 mi North 10.4 mph - N/A   Clear
3:53 PM 104.0 °F 102.3 °F 54.0 °F 19% 29.77 in 10.0 mi North 8.1 mph 21.9 mph N/A   Clear
4:53 PM 104.0 °F 101.8 °F 53.1 °F 18% 29.75 in 10.0 mi North 11.5 mph - N/A   Clear
5:53 PM 102.9 °F - 52.0 °F 18% 29.76 in 10.0 mi NW 10.4 mph - N/A   Clear
6:22 PM 102.9 °F 100.9 °F 53.1 °F 19% 29.94 in 10.0 mi NNW 11.5 mph - N/A   Partly Cloudy
6:23 PM 102.9 °F 100.9 °F 53.1 °F 19% 29.94 in 10.0 mi NNW 11.5 mph - N/A   Partly Cloudy
6:43 PM 96.1 °F 93.5 °F 53.1 °F 23% 29.97 in 10.0 mi SSE 41.4 mph 51.8 mph N/A   Scattered Clouds
6:53 PM 89.1 °F 88.2 °F 59.0 °F 36% 29.81 in 8.0 mi SSW 13.8 mph 52.9 mph 0.01 in Rain Rain
7:03 PM 87.1 °F 86.5 °F 59.0 °F 39% 29.97 in 10.0 mi South 29.9 mph 40.3 mph 0.00 in Rain , Thunderstorm Light Rain
7:53 PM 84.9 °F 83.9 °F 57.0 °F 38% 29.86 in 10.0 mi SW 23.0 mph 38.0 mph 0.00 in   Scattered Clouds
8:01 PM 84.9 °F 83.9 °F 57.0 °F 38% 30.01 in 10.0 mi WSW 21.9 mph 33.4 mph N/A Thunderstorm Mostly Cloudy
8:16 PM 84.9 °F 84.4 °F 59.0 °F 41% 30.01 in 10.0 mi WSW 18.4 mph 28.8 mph 0.00 in Rain Light Rain
8:53 PM 82.9 °F 83.7 °F 62.1 °F 49% 29.86 in 10.0 mi North - - 0.00 in   Partly Cloudy
9:53 PM 80.1 °F 80.9 °F 60.1 °F 50% 29.88 in 10.0 mi West 27.6 mph 34.5 mph N/A   Clear
10:53 PM 82.9 °F 82.8 °F 59.0 °F 44% 29.92 in 10.0 mi SE 16.1 mph - N/A   Partly Cloudy
11:40 PM 82.9 °F 83.2 °F 60.1 °F 46% 30.06 in 10.0 mi SE 19.6 mph 31.1 mph N/A Thunderstorm Mostly Cloudy
11:53 PM 84.9 °F 84.8 °F 60.1 °F 43% 29.88 in 10.0 mi ESE 16.1 mph 25.3 mph 0.00 in   Mostly Cloudy